CW7443 Weather Reports


Display with metric or nautical units.
time (UTC)temp
F
wind
direction
speed
MPH
gust
MPH
rain 1hr
in
rain 24hr
in
rain mn
in
humidity
%
barometer
mb
20200218120906 48 148 2.0 6.0 0.00 0.04 0.03 95 1013.7
20200218120358 47 222 1.0 4.0 0.00 0.04 0.03 95 1013.7
20200218115855 47 134 0.0 3.0 0.00 0.04 0.03 94 1013.7
20200218115352 46 197 0.0 2.0 0.00 0.04 0.03 94 1013.7
20200218114905 46 202 0.0 0.0 0.00 0.04 0.03 93 1013.7
20200218114401 46 202 0.0 3.0 0.00 0.04 0.03 93 1013.5
20200218113854 46 201 0.0 3.0 0.00 0.04 0.03 93 1013.5
20200218113347 46 202 0.0 4.0 0.00 0.04 0.03 93 1013.5
20200218112905 46 202 0.0 4.0 0.00 0.04 0.03 93 1013.3
20200218112358 46 178 0.0 2.0 0.00 0.04 0.03 93 1013.3
20200218111850 46 178 0.0 2.0 0.00 0.04 0.03 93 1013.3
20200218111349 46 178 0.0 1.0 0.00 0.04 0.03 93 1013.1
20200218110846 46 178 0.0 3.0 0.01 0.04 0.03 92 1013.1
20200218110358 46 178 0.0 3.0 0.01 0.04 0.03 92 1013.1
20200218105855 46 203 0.0 1.0 0.01 0.04 0.03 92 1013.0
20200218105347 46 217 0.0 1.0 0.02 0.04 0.03 92 1013.0
20200218104900 46 217 0.0 1.0 0.02 0.04 0.03 92 1013.0
20200218104359 46 217 0.0 1.0 0.03 0.04 0.03 91 1012.9
20200218103852 46 217 0.0 1.0 0.03 0.04 0.03 91 1012.9
20200218103405 46 217 0.0 1.0 0.03 0.04 0.03 90 1012.9
20200218102902 47 217 0.0 2.0 0.03 0.04 0.03 90 1012.8
20200218102355 47 217 0.0 5.0 0.03 0.04 0.03 89 1012.8
20200218101852 47 223 1.0 5.0 0.03 0.04 0.03 88 1012.8
20200218101351 47 189 1.0 4.0 0.03 0.04 0.03 87 1012.7
20200218100904 47 225 0.0 6.0 0.02 0.03 0.02 86 1012.7
20200218100357 47 89 1.0 6.0 0.02 0.03 0.02 85 1012.7
20200218095856 47 201 0.0 3.0 0.02 0.03 0.02 82 1012.6
20200218095348 48 165 0.0 2.0 0.01 0.02 0.01 80 1012.6
20200218094901 48 165 0.0 2.0 0.01 0.02 0.01 77 1012.6
20200218094357 48 164 0.0 3.0 0.00 0.01 0.00 76 1012.1
20200218093849 49 164 0.0 3.0 0.00 0.01 0.00 74 1012.1
20200218093403 49 192 0.0 2.0 0.00 0.01 0.00 72 1012.1
20200218092900 49 192 0.0 4.0 0.00 0.01 0.00 72 1012.1
20200218092357 49 151 1.0 4.0 0.00 0.01 0.00 69 1012.1
20200218091346 49 172 0.0 3.0 0.00 0.01 0.00 68 1012.1
20200218090858 49 302 0.0 3.0 0.00 0.01 0.00 68 1012.1
20200218090350 49 212 0.0 4.0 0.00 0.01 0.00 67 1012.1
20200218085845 49 205 1.0 5.0 0.00 0.01 0.00 67 1012.3
20200218085358 49 173 1.0 5.0 0.00 0.01 0.00 67 1012.3
20200218084850 49 128 1.0 5.0 0.00 0.01 0.00 67 1012.3
20200218084349 49 155 0.0 2.0 0.00 0.01 0.00 67 1012.6
20200218083902 49 155 0.0 3.0 0.00 0.01 0.00 67 1012.6
20200218083355 48 263 0.0 3.0 0.00 0.01 0.00 67 1012.6
20200218082857 47 187 1.0 3.0 0.00 0.01 0.00 68 1012.6
20200218082349 47 167 0.0 3.0 0.00 0.01 0.00 68 1012.6
20200218081902 46 171 0.0 2.0 0.00 0.01 0.00 68 1012.6
20200218081358 46 171 0.0 2.0 0.00 0.01 0.00 66 1012.8
20200218080851 46 171 0.0 1.0 0.00 0.01 0.00 66 1012.8
20200218080403 46 171 0.0 1.0 0.00 0.01 0.00 65 1012.8
20200218075854 46 171 0.0 0.0 0.00 0.01 0.00 65 1012.8
20200218075347 46 171 0.0 1.0 0.00 0.01 0.00 64 1012.8
20200218074857 46 171 0.0 1.0 0.00 0.01 0.00 64 1012.8
20200218074353 46 171 0.0 1.0 0.00 0.01 0.00 64 1012.7
20200218073850 46 171 0.0 2.0 0.00 0.01 0.00 63 1012.7
20200218073403 45 171 0.0 2.0 0.00 0.01 0.00 63 1012.7
20200218072900 45 171 0.0 2.0 0.00 0.01 0.00 63 1012.7
20200218072353 45 170 0.0 1.0 0.00 0.01 0.00 63 1012.7
20200218071844 45 170 0.0 1.0 0.00 0.01 0.00 62 1012.7
20200218071403 45 170 0.0 4.0 0.00 0.01 0.00 61 1012.6
20200218070856 45 169 0.0 4.0 0.00 0.01 0.00 61 1012.6
20200218070347 45 138 0.0 2.0 0.00 0.01 0.00 61 1012.6
20200218065857 45 157 0.0 2.0 0.00 0.01 0.00 60 1012.6
20200218065354 45 127 0.0 2.0 0.00 0.01 0.00 59 1012.6
20200218064846 45 105 1.0 3.0 0.00 0.01 0.00 59 1012.6
20200218064343 44 88 1.0 3.0 0.00 0.01 0.00 58 1012.6
20200218063856 44 86 1.0 2.0 0.00 0.01 0.00 59 1012.6
20200218063349 44 71 0.0 2.0 0.00 0.01 0.00 58 1012.6
20200218062847 44 71 0.0 2.0 0.00 0.01 0.00 58 1012.6
20200218062400 44 71 0.0 2.0 0.00 0.01 0.00 58 1012.6
20200218061852 43 71 0.0 2.0 0.00 0.01 0.00 57 1012.6
20200218061347 43 71 0.0 2.0 0.00 0.01 0.00 57 1012.6
20200218060844 43 71 0.0 2.0 0.00 0.01 0.00 56 1012.6
20200218060356 43 71 0.0 1.0 0.00 0.01 0.00 56 1012.6
20200218055847 42 71 0.0 2.0 0.00 0.01 0.00 57 1012.8
20200218055359 42 71 0.0 2.0 0.00 0.01 0.00 57 1012.8
20200218054852 42 71 0.0 1.0 0.00 0.01 0.00 56 1012.8
20200218054349 42 71 0.0 1.0 0.00 0.01 0.00 56 1012.8
20200218053842 42 71 0.0 1.0 0.00 0.01 0.00 56 1012.8
20200218053355 42 71 0.0 1.0 0.00 0.01 0.00 56 1012.8
20200218052851 42 71 0.0 1.0 0.00 0.01 0.00 55 1012.9
20200218052342 42 71 0.0 1.0 0.00 0.01 0.00 56 1012.9
20200218051915 42 71 0.0 2.0 0.00 0.01 0.00 56 1012.9
20200218051354 42 71 0.0 2.0 0.00 0.01 0.00 56 1013.1
20200218050843 42 71 0.0 2.0 0.00 0.01 0.00 55 1013.1
20200218050354 42 71 0.0 2.0 0.00 0.01 0.00 56 1013.1
20200218045852 42 71 0.0 2.0 0.00 0.01 0.01 56 1013.2
20200218045349 42 71 0.0 2.0 0.00 0.01 0.01 56 1013.2
20200218044859 42 71 0.0 2.0 0.00 0.01 0.01 57 1013.2
20200218044357 42 71 0.0 2.0 0.00 0.01 0.01 57 1013.5
20200218043849 42 71 1.0 2.0 0.00 0.01 0.01 57 1013.5
20200218043342 42 71 0.0 2.0 0.00 0.01 0.01 57 1013.5
20200218042858 42 71 0.0 3.0 0.00 0.01 0.01 58 1013.7
20200218042351 42 71 0.0 3.0 0.00 0.01 0.01 59 1013.7
20200218041843 42 47 0.0 2.0 0.00 0.01 0.01 59 1013.7
20200218041357 41 47 0.0 1.0 0.00 0.01 0.01 61 1014.2
20200218040850 41 47 0.0 1.0 0.00 0.01 0.01 62 1014.2
20200218040346 42 47 0.0 1.0 0.00 0.01 0.01 62 1014.2
20200218035843 42 47 0.0 2.0 0.00 0.01 0.01 64 1014.6
20200218035356 42 47 0.0 3.0 0.00 0.01 0.01 59 1014.6
20200218034847 42 47 0.0 3.0 0.00 0.01 0.01 59 1014.6
20200218034345 41 47 0.0 2.0 0.00 0.01 0.01 59 1014.7
20200218033858 41 47 0.0 1.0 0.00 0.01 0.01 59 1014.7
20200218033351 41 47 0.0 1.0 0.00 0.01 0.01 60 1014.7
20200218032850 41 47 0.0 1.0 0.00 0.01 0.01 59 1014.9
20200218032342 42 47 0.0 1.0 0.00 0.01 0.01 57 1014.9
20200218031859 42 47 0.0 2.0 0.00 0.01 0.01 56 1014.9
20200218031358 42 47 0.0 2.0 0.00 0.01 0.01 55 1015.3
20200218030849 42 47 0.0 2.0 0.00 0.01 0.01 55 1015.3
20200218030340 42 47 0.0 2.0 0.00 0.01 0.01 56 1015.3
20200218025857 42 47 1.0 2.0 0.00 0.01 0.01 55 1015.5
20200218025349 42 47 0.0 1.0 0.00 0.01 0.01 55 1015.5
20200218024841 42 47 0.0 1.0 0.00 0.01 0.01 55 1015.5
20200218024353 42 47 0.0 2.0 0.00 0.01 0.01 55 1015.5
20200218023843 42 47 0.0 3.0 0.00 0.01 0.01 55 1015.5
20200218023355 42 47 1.0 3.0 0.00 0.01 0.01 56 1015.5
20200218022856 42 47 0.0 3.0 0.00 0.01 0.01 55 1015.9
20200218022348 42 47 1.0 3.0 0.00 0.01 0.01 54 1015.9
20200218021840 42 46 1.0 2.0 0.00 0.01 0.01 54 1015.9
20200218021359 42 46 0.0 2.0 0.00 0.01 0.01 55 1016.0
20200218020852 42 46 1.0 2.0 0.00 0.01 0.01 55 1016.0
20200218020343 42 46 0.0 2.0 0.00 0.01 0.01 56 1016.0
20200218015840 42 46 0.0 1.0 0.00 0.01 0.01 55 1016.2
20200218015353 42 46 0.0 1.0 0.00 0.01 0.01 56 1016.2
20200218014846 42 46 0.0 1.0 0.00 0.01 0.01 54 1016.2
20200218014347 42 46 0.0 2.0 0.00 0.01 0.01 54 1016.8
20200218013840 42 46 0.0 2.0 0.00 0.01 0.01 53 1016.8
20200218013353 42 46 0.0 1.0 0.00 0.01 0.01 54 1016.8
20200218012847 42 46 0.0 2.0 0.00 0.01 0.01 52 1017.0
20200218012340 42 46 0.0 2.0 0.00 0.01 0.01 52 1017.0
20200218011853 42 46 0.0 1.0 0.00 0.01 0.01 51 1017.0
20200218011350 42 46 0.0 1.0 0.00 0.01 0.01 51 1017.3
20200218010843 42 46 0.0 1.0 0.00 0.01 0.01 52 1017.3
20200218010355 42 46 0.0 1.0 0.00 0.01 0.01 51 1017.3
20200218005853 42 46 0.0 1.0 0.00 0.01 0.01 52 1017.4
20200218005348 42 46 0.0 1.0 0.00 0.01 0.01 51 1017.4
20200218004840 42 46 0.0 1.0 0.00 0.01 0.01 51 1017.4
20200218004358 42 46 0.0 1.0 0.00 0.01 0.01 51 1017.5
20200218003851 42 46 0.0 1.0 0.00 0.01 0.01 51 1017.5
20200218003344 42 46 0.0 1.0 0.00 0.01 0.01 53 1017.5
20200218002841 42 46 0.0 1.0 0.00 0.01 0.01 50 1017.4
20200218002354 42 46 0.0 2.0 0.00 0.01 0.01 50 1017.4
20200218001847 43 47 0.0 2.0 0.00 0.01 0.01 49 1017.4
20200218001345 43 47 0.0 2.0 0.00 0.01 0.01 49 1017.2
20200218000842 43 47 0.0 3.0 0.00 0.01 0.01 48 1017.2
20200218000354 43 47 1.0 3.0 0.00 0.01 0.01 47 1017.2
20200217235848 43 47 1.0 2.0 0.00 0.01 0.01 48 1017.5
20200217235341 43 47 0.0 2.0 0.00 0.01 0.01 48 1017.5
20200217234854 43 47 0.0 1.0 0.00 0.01 0.01 48 1017.5
20200217234350 43 47 0.0 1.0 0.00 0.01 0.01 50 1017.4
20200217233843 43 47 0.0 1.0 0.00 0.01 0.01 49 1017.4
20200217233356 43 47 0.0 1.0 0.00 0.01 0.01 48 1017.4
20200217232853 43 47 0.0 1.0 0.00 0.01 0.01 49 1017.5
20200217232349 43 47 0.0 1.0 0.00 0.01 0.01 50 1017.5
20200217231841 43 47 0.0 1.0 0.00 0.01 0.01 49 1017.5
20200217231340 43 47 0.0 2.0 0.00 0.01 0.01 49 1017.5
20200217230852 43 47 0.0 2.0 0.00 0.01 0.01 48 1017.5
20200217230344 43 47 0.0 1.0 0.00 0.01 0.01 49 1017.5
20200217225841 43 47 0.0 2.0 0.00 0.01 0.01 50 1018.0
20200217225354 44 47 0.0 2.0 0.00 0.01 0.01 49 1018.0
20200217224847 44 47 0.0 2.0 0.00 0.01 0.01 51 1018.0
20200217224345 44 47 0.0 2.0 0.00 0.01 0.01 52 1018.0
20200217223841 44 47 0.0 1.0 0.00 0.01 0.01 50 1018.0
20200217223354 44 47 0.0 1.0 0.00 0.01 0.01 52 1018.0
20200217222852 44 47 0.0 1.0 0.00 0.01 0.01 49 1018.0
20200217222345 44 47 0.0 1.0 0.00 0.01 0.01 50 1018.0
20200217221838 44 47 0.0 1.0 0.00 0.01 0.01 48 1018.0
20200217221350 44 47 0.0 3.0 0.00 0.01 0.01 49 1018.1
20200217220843 44 47 1.0 3.0 0.00 0.01 0.01 48 1018.1
20200217220355 44 47 0.0 2.0 0.00 0.01 0.01 47 1018.1
20200217215848 44 47 1.0 2.0 0.00 0.02 0.01 49 1018.3
20200217215340 45 47 0.0 2.0 0.00 0.02 0.01 49 1018.3
20200217214837 45 47 0.0 3.0 0.00 0.02 0.01 50 1018.3
20200217214354 45 47 1.0 3.0 0.00 0.02 0.01 49 1018.6
20200217213847 45 41 0.0 1.0 0.00 0.02 0.01 50 1018.6
20200217213339 45 41 0.0 2.0 0.00 0.02 0.01 48 1018.6
20200217212848 45 41 1.0 2.0 0.00 0.02 0.01 47 1018.7
20200217212340 45 39 0.0 1.0 0.00 0.02 0.01 48 1018.7
20200217211853 45 39 0.0 5.0 0.00 0.02 0.01 50 1018.7
20200217211351 45 39 0.0 5.0 0.00 0.02 0.01 47 1018.6
20200217210844 45 71 0.0 3.0 0.00 0.02 0.01 46 1018.6
20200217210339 45 69 2.0 3.0 0.00 0.02 0.01 47 1018.6
20200217205856 45 69 0.0 3.0 0.00 0.03 0.01 49 1018.5
20200217205348 45 69 1.0 3.0 0.00 0.03 0.01 46 1018.5
20200217204841 46 69 2.0 3.0 0.00 0.03 0.01 45 1018.5
20200217204340 46 70 1.0 3.0 0.00 0.03 0.01 46 1018.7
20200217203851 46 70 1.0 3.0 0.00 0.03 0.01 44 1018.7
20200217203343 46 69 1.0 4.0 0.00 0.03 0.01 44 1018.7
20200217202841 46 71 2.0 4.0 0.00 0.03 0.01 44 1018.9
20200217202354 46 69 1.0 3.0 0.00 0.03 0.01 46 1018.9
20200217201845 46 67 1.0 3.0 0.00 0.03 0.01 44 1018.9
20200217201346 46 67 1.0 4.0 0.00 0.03 0.01 48 1019.1
20200217200839 46 67 2.0 4.0 0.00 0.03 0.01 45 1019.1
20200217200350 46 73 1.0 4.0 0.00 0.03 0.01 44 1019.1
20200217195848 46 73 1.0 4.0 0.00 0.04 0.01 47 1019.1
20200217195340 46 71 1.0 4.0 0.00 0.04 0.01 48 1019.1
20200217194854 45 71 1.0 4.0 0.00 0.04 0.01 45 1019.1
20200217194353 45 71 2.0 4.0 0.00 0.04 0.01 46 1019.5
20200217193845 45 65 2.0 4.0 0.00 0.04 0.01 46 1019.5
20200217193338 45 75 1.0 4.0 0.00 0.04 0.01 47 1019.5
20200217192852 45 75 3.0 4.0 0.00 0.04 0.01 45 1019.8
20200217192345 45 76 2.0 4.0 0.00 0.04 0.01 45 1019.8
20200217191838 46 70 2.0 4.0 0.00 0.04 0.01 45 1019.8
20200217191336 46 103 1.0 5.0 0.00 0.04 0.01 45 1020.2
20200217190848 46 88 2.0 3.0 0.00 0.04 0.01 44 1020.2
20200217190338 46 77 1.0 4.0 0.00 0.04 0.01 45 1020.2
20200217185835 46 76 2.0 4.0 0.00 0.06 0.01 45 1020.5
20200217185348 46 70 2.0 4.0 0.00 0.06 0.01 48 1020.5
20200217184841 46 98 1.0 5.0 0.00 0.06 0.01 45 1020.5
20200217184339 46 77 2.0 5.0 0.00 0.06 0.01 48 1020.7
20200217183835 46 81 2.0 5.0 0.00 0.06 0.01 43 1020.7
20200217183347 46 87 1.0 3.0 0.00 0.06 0.01 47 1020.7
20200217182843 45 88 1.0 5.0 0.00 0.06 0.01 47 1021.1
20200217182336 45 84 1.0 5.0 0.00 0.06 0.01 44 1021.1
20200217181849 44 84 2.0 5.0 0.00 0.06 0.01 47 1021.1
20200217181348 44 80 1.0 5.0 0.00 0.06 0.01 50 1021.3
20200217180840 44 77 2.0 5.0 0.00 0.06 0.01 49 1021.3
20200217180352 43 74 2.0 4.0 0.00 0.06 0.01 48 1021.3
20200217175847 43 78 1.0 5.0 0.00 0.06 0.01 52 1021.7
20200217175344 43 90 1.0 5.0 0.00 0.06 0.01 51 1021.7
20200217174836 43 75 1.0 3.0 0.01 0.06 0.01 53 1021.7
20200217174335 43 74 1.0 5.0 0.01 0.06 0.01 52 1021.8
20200217173848 43 74 2.0 5.0 0.01 0.06 0.01 51 1021.8
20200217173339 44 88 2.0 5.0 0.01 0.06 0.01 53 1021.8
20200217172836 44 80 2.0 5.0 0.01 0.06 0.01 50 1022.2
20200217172349 44 102 2.0 5.0 0.01 0.06 0.01 50 1022.2
20200217171841 44 78 1.0 4.0 0.01 0.06 0.01 53 1022.2
20200217171340 43 78 1.0 4.0 0.01 0.06 0.01 53 1022.5
20200217170837 43 74 2.0 4.0 0.01 0.06 0.01 54 1022.5
20200217170349 43 101 1.0 5.0 0.01 0.06 0.01 54 1022.5
20200217165843 42 101 1.0 5.0 0.01 0.07 0.01 56 1023.0
20200217165336 41 67 1.0 4.0 0.01 0.07 0.01 59 1023.0
20200217164849 40 90 1.0 4.0 0.00 0.06 0.00 61 1023.0
20200217164346 39 72 1.0 4.0 0.00 0.06 0.00 61 1023.4
20200217163838 39 73 1.0 4.0 0.00 0.06 0.00 66 1023.4
20200217163351 38 67 2.0 4.0 0.00 0.06 0.00 65 1023.4
20200217162848 38 65 1.0 3.0 0.00 0.06 0.00 69 1023.5
20200217162340 38 91 2.0 3.0 0.00 0.06 0.00 69 1023.5
20200217161837 37 107 0.0 3.0 0.00 0.06 0.00 71 1023.5
20200217161336 37 73 1.0 3.0 0.00 0.06 0.00 70 1023.4
20200217160849 37 74 1.0 4.0 0.00 0.06 0.00 71 1023.4
20200217160340 36 74 1.0 4.0 0.00 0.06 0.00 73 1023.4
20200217155835 36 73 0.0 3.0 0.00 0.06 0.00 75 1023.7
20200217155348 35 74 0.0 3.0 0.00 0.06 0.00 75 1023.7
20200217154841 35 74 0.0 3.0 0.00 0.06 0.00 76 1023.7
20200217154342 35 73 2.0 3.0 0.00 0.06 0.00 76 1023.9
20200217153853 34 74 1.0 3.0 0.00 0.06 0.00 77 1023.9
20200217153350 34 76 1.0 2.0 0.00 0.06 0.00 79 1023.9
20200217152845 34 76 1.0 3.0 0.00 0.06 0.00 79 1024.0
20200217152337 34 77 0.0 3.0 0.00 0.06 0.00 79 1024.0
20200217151850 33 78 1.0 2.0 0.00 0.06 0.00 80 1024.0
20200217151348 33 78 0.0 3.0 0.00 0.06 0.00 81 1023.9
20200217150841 33 78 1.0 3.0 0.00 0.06 0.00 81 1023.9
20200217150353 33 78 1.0 3.0 0.00 0.06 0.00 81 1023.9
20200217145851 33 80 1.0 3.0 0.00 0.06 0.00 83 1023.9
20200217145343 33 80 1.0 2.0 0.00 0.06 0.00 85 1023.9
20200217144840 32 80 0.0 2.0 0.00 0.06 0.00 85 1023.9
20200217144339 32 80 0.0 2.0 0.00 0.06 0.00 87 1023.8
20200217143852 32 80 1.0 2.0 0.00 0.06 0.00 89 1023.8
20200217143345 31 82 0.0 4.0 0.00 0.06 0.00 90 1023.8
20200217142841 31 82 1.0 4.0 0.00 0.06 0.00 91 1023.8
20200217142334 30 134 0.0 1.0 0.00 0.06 0.00 92 1023.8
20200217141845 30 134 0.0 1.0 0.00 0.06 0.00 93 1023.8
20200217141344 30 134 0.0 1.0 0.00 0.06 0.00 93 1023.4
20200217140836 29 134 0.0 2.0 0.00 0.06 0.00 93 1023.4
20200217140347 29 134 0.0 2.0 0.00 0.06 0.00 94 1023.4
20200217135848 29 134 1.0 2.0 0.00 0.06 0.00 94 1023.4
20200217135341 29 175 0.0 0.0 0.00 0.06 0.00 94 1023.4
20200217134851 29 175 0.0 1.0 0.00 0.06 0.00 94 1023.4
20200217134348 28 175 0.0 1.0 0.00 0.06 0.00 95 1023.4
20200217133839 28 175 0.0 1.0 0.00 0.06 0.00 95 1023.4
20200217133332 28 175 0.0 1.0 0.00 0.06 0.00 95 1023.4
20200217132848 27 175 0.0 0.0 0.00 0.06 0.00 94 1022.9
20200217132341 26 175 0.0 0.0 0.00 0.06 0.00 94 1022.9
20200217131833 26 175 0.0 0.0 0.00 0.06 0.00 94 1022.9
20200217131336 25 175 0.0 0.0 0.00 0.06 0.00 94 1022.6
20200217130849 25 175 0.0 0.0 0.00 0.06 0.00 94 1022.6
20200217130341 25 175 0.0 0.0 0.00 0.06 0.00 93 1022.6
20200217125837 24 175 0.0 0.0 0.00 0.06 0.00 93 1022.3
20200217125351 24 175 0.0 0.0 0.00 0.06 0.00 93 1022.3
20200217124843 24 175 0.0 0.0 0.00 0.06 0.00 93 1022.3
20200217124342 24 175 0.0 0.0 0.00 0.06 0.00 93 1022.3
20200217123835 24 175 0.0 0.0 0.00 0.06 0.00 92 1022.3
20200217123346 24 175 0.0 0.0 0.00 0.06 0.00 92 1022.3
20200217122843 24 175 0.0 0.0 0.00 0.06 0.00 93 1022.3
20200217122339 24 175 0.0 0.0 0.00 0.06 0.00 93 1022.3
20200217121832 24 175 0.0 0.0 0.00 0.06 0.00 93 1022.3
20200217121331 24 175 0.0 0.0 0.00 0.06 0.00 93 1022.0